Change the Weather History Date:

Tuesday, July 23, 2013

  Actual Average Record
Temperature  
Mean Temperature 79 °F 76 °F  
Max Temperature 86 °F 85 °F 99 °F (1933)
Min Temperature 71 °F 66 °F 49 °F (1947)
Degree Days  
Heating Degree Days 0 0  
Month to date heating degree days 0 0  
Since 1 June heating degree days 0 13  
Since 1 July heating degree days 0 0  
Cooling Degree Days 14 10  
Month to date cooling degree days 284 245  
Year to date cooling degree days 666 575  
Since 1 June cooling degree days 519 465  
Growing Degree Days 28 (Base 50)    
Moisture  
Dew Point 68 °F    
Average Humidity 74    
Maximum Humidity 93    
Minimum Humidity 55    
Precipitation  
Precipitation 0.01 in 0.16 in 2.33 in (1938)
Month to date precipitation 6.19 3.66  
Year to date precipitation 28.74 26.09  
Snow  
Snow 0.00 in - - ()
Month to date snowfall 0.0  
Since 1 September snowfall 25.3  
Snow Depth 0.00 in    
Sea Level Pressure  
Sea Level Pressure 29.80 in    
Wind  
Wind Speed 5 mph (WSW)    
Max Wind Speed 14 mph    
Max Gust Speed 20 mph    
Visibility 8 miles    
Events Rain    
T = Trace of Precipitation, MM = Missing Value Source: NWS Daily Summary

Daily Weather History Graph

Daily Weather History Graph

Search for Another Location

Airport or City:

Trip Planner

Search our weather history database for the weather conditions in past years. The results will help you decide how hot, cold, wet, or windy it might be!

Date:

Astronomy

Jul. 23, 2013 Rise Set
Actual Time 6:21 AM EDT 8:44 PM EDT
Civil Twilight 5:50 AM EDT 9:14 PM EDT
Nautical Twilight 5:13 AM EDT 9:51 PM EDT
Astronomical Twilight 4:32 AM EDT 10:32 PM EDT
Moon 9:13 PM EDT (7/23) 7:26 AM EDT (7/23)
Length of Visible Light 15h 23m
Length of Day
14h 22m
Full, 99% of the Moon is Illuminated
Jul 23
Full
Jul 29
Last Quarter
Aug 6
New
Aug 14
First Quarter
Aug 20
Full

Hourly Weather History & Observations

Time (EDT) Temp. Heat Index Dew Point Humidity Pressure Visibility Wind Dir Wind Speed Gust Speed Precip Events Conditions
12:54 AM 71.1 °F - 68.0 °F 90% 29.81 in 3.0 mi SSW 4.6 mph - N/A   Overcast
1:54 AM 71.1 °F - 68.0 °F 90% 29.81 in 3.0 mi WSW 4.6 mph - N/A   Overcast
2:54 AM 71.1 °F - 69.1 °F 93% 29.80 in 10.0 mi WSW 4.6 mph - N/A   Overcast
3:54 AM 72.0 °F - 69.1 °F 91% 29.79 in 10.0 mi WSW 4.6 mph - 0.00 in Rain Light Rain
4:54 AM 72.0 °F - 68.0 °F 87% 29.79 in 10.0 mi West 5.8 mph - 0.01 in   Overcast
5:54 AM 72.0 °F - 69.1 °F 91% 29.80 in 6.0 mi WNW 5.8 mph - N/A   Overcast
6:54 AM 72.0 °F - 69.1 °F 91% 29.82 in 4.0 mi West 5.8 mph - N/A   Overcast
7:44 AM 71.6 °F - 69.8 °F 94% 29.85 in 6.0 mi West 4.6 mph - N/A   Mostly Cloudy
7:54 AM 72.0 °F - 69.1 °F 91% 29.83 in 6.0 mi WNW 3.5 mph - N/A   Mostly Cloudy
8:04 AM 71.6 °F - 69.8 °F 94% 29.86 in 6.0 mi Variable 3.5 mph - N/A   Overcast
8:54 AM 73.0 °F - 68.0 °F 84% 29.83 in 7.0 mi Calm Calm - N/A   Overcast
9:43 AM 75.2 °F - 68.0 °F 78% 29.84 in 7.0 mi West 4.6 mph - N/A   Mostly Cloudy
9:54 AM 75.9 °F - 68.0 °F 76% 29.81 in 7.0 mi West 8.1 mph - N/A   Scattered Clouds
10:20 AM 77.0 °F - 66.2 °F 69% 29.84 in 8.0 mi West 5.8 mph - N/A   Mostly Cloudy
10:54 AM 77.0 °F - 68.0 °F 74% 29.81 in 8.0 mi Variable 3.5 mph - N/A   Mostly Cloudy
11:54 AM 81.0 °F 83.8 °F 68.0 °F 65% 29.83 in 10.0 mi Variable 3.5 mph - N/A   Mostly Cloudy
12:41 PM 80.6 °F 83.2 °F 68.0 °F 65% 29.86 in 10.0 mi Variable 5.8 mph - N/A   Mostly Cloudy
12:54 PM 82.0 °F 84.5 °F 66.9 °F 60% 29.83 in 10.0 mi WSW 8.1 mph - N/A   Mostly Cloudy
1:54 PM 82.0 °F 84.5 °F 66.9 °F 60% 29.81 in 10.0 mi West 9.2 mph - N/A   Scattered Clouds
2:54 PM 84.9 °F 87.6 °F 66.9 °F 55% 29.79 in 10.0 mi Variable 3.5 mph - N/A   Scattered Clouds
3:54 PM 84.9 °F 87.1 °F 66.0 °F 53% 29.77 in 10.0 mi Variable 3.5 mph - N/A   Scattered Clouds
4:54 PM 84.0 °F 86.5 °F 66.9 °F 56% 29.75 in 10.0 mi Variable 6.9 mph - N/A   Scattered Clouds
5:54 PM 82.9 °F 85.4 °F 66.9 °F 58% 29.75 in 10.0 mi WSW 5.8 mph - N/A   Scattered Clouds
6:54 PM 82.0 °F 84.5 °F 66.9 °F 60% 29.74 in 10.0 mi WSW 6.9 mph - N/A   Mostly Cloudy
7:54 PM 80.1 °F 82.9 °F 69.1 °F 69% 29.76 in 10.0 mi SW 4.6 mph - N/A   Mostly Cloudy
8:54 PM 79.0 °F - 69.1 °F 72% 29.76 in 10.0 mi SSW 4.6 mph - N/A   Mostly Cloudy
9:54 PM 78.1 °F - 69.1 °F 74% 29.76 in 10.0 mi WSW 10.4 mph - N/A   Mostly Cloudy
10:54 PM 75.9 °F - 69.1 °F 79% 29.78 in 10.0 mi WSW 3.5 mph - N/A   Scattered Clouds
11:54 PM 73.0 °F - 70.0 °F 90% 29.78 in 10.0 mi Calm Calm - N/A   Scattered Clouds